Wind_Speed
27 27 30 31 31 31 29 29 31 33 37 35 39 42 46 42 43 44 42 42 41 38 36 36 38 39 40 39 39 38 40 44 48 51 51 51 53 50 43 39 42 36 37 34
29 31 31 30 30 30 29 30 31 33 33 34 36 38 40 41 42 42 42 42 42 40 38 39 41 42 42 41 40 40 40 44 49 52 52 54 60 55 48 45 37 36 37 33
32 33 31 30 30 29 30 30 31 32 33 33 34 34 36 37 38 38 38 40 41 40 38 38 40 39 39 39 42 45 46 47 50 53 54 54 54 53 50 41 33 32 37 36
32 33 33 32 31 30 29 31 31 32 32 30 33 32 35 36 36 36 37 38 38 38 39 40 40 40 42 43 46 49 50 50 52 54 55 53 51 52 52 47 42 40 42 46
28 31 33 34 35 33 34 34 32 33 33 33 34 34 32 37 35 36 35 35 35 36 38 39 40 40 41 42 45 49 51 52 53 52 52 51 49 49 50 49 46 43 36 38
25 28 30 33 35 36 37 37 38 38 38 40 36 37 36 37 39 38 36 36 36 36 37 39 41 42 43 43 46 49 51 51 51 51 50 49 47 44 44 43 44 41 37 35
18 20 23 27 31 36 38 40 41 41 40 40 39 43 41 43 45 43 41 42 42 42 43 44 45 46 45 44 44 44 45 45 45 45 43 42 40 37 35 36 37 34 35 33
16 19 22 24 25 27 31 35 39 39 36 34 43 45 45 49 47 47 47 48 50 50 50 49 47 46 45 43 40 38 38 39 39 38 34 33 30 28 26 26 27 28 25 27
21 25 26 27 27 27 27 30 35 38 39 40 43 41 44 48 47 47 49 50 51 50 50 47 44 43 42 40 37 34 33 32 29 27 25 22 19 20 23 24 24 20 20 26
24 29 31 29 29 29 28 28 28 31 33 36 39 37 31 34 40 40 40 43 44 45 44 42 40 38 37 35 33 32 29 26 23 20 17 16 13 11 14 17 21 22 27 29
28 29 30 29 27 27 30 31 32 34 34 33 31 34 40 37 33 34 35 36 39 40 40 40 38 35 34 35 34 33 30 26 22 18 18 14 11 15 14 18 17 20 24 27
26 29 28 28 31 34 37 38 38 37 34 36 36 35 32 33 32 32 33 34 35 34 35 36 36 35 33 32 32 30 28 27 24 22 24 18 14 14 15 17 17 21 20 23
19 23 27 25 30 35 38 41 44 45 42 41 38 36 34 30 32 32 30 29 31 32 32 32 31 31 32 31 31 30 27 26 25 25 26 24 21 19 19 19 19 22 23 26
18 19 24 28 34 40 39 33 29 35 39 36 33 35 37 33 31 32 31 28 29 31 32 30 28 28 29 29 29 29 29 30 31 31 29 28 28 25 23 22 23 24 25 26
24 20 22 24 27 33 34 31 29 27 31 34 33 33 36 32 31 32 32 35 29 27 29 28 26 26 27 27 27 27 29 31 32 34 35 34 34 32 28 27 28 29 29 29
28 23 21 20 22 25 22 21 24 27 28 30 32 34 32 31 31 32 30 30 29 25 25 26 26 26 26 27 29 31 32 32 32 33 34 36 39 40 39 38 37 37 36 36
27 24 22 18 20 20 21 19 17 17 22 25 25 26 26 27 30 31 30 29 29 24 24 26 27 29 31 31 32 33 34 34 35 36 36 37 39 41 43 44 44 44 44 44
28 26 23 21 19 18 15 14 13 9 12 15 12 10 13 17 19 23 24 27 25 22 28 31 30 29 29 29 30 31 32 33 35 36 37 38 40 42 44 45 46 47 48 48
27 27 23 19 16 15 13 10 8 8 7 8 9 9 11 14 13 15 17 22 22 21 28 34 26 25 28 28 28 29 29 29 30 32 34 35 36 38 40 42 43 44 45 46
24 26 24 21 16 13 11 6 4 4 5 5 6 10 10 11 12 13 14 15 16 15 16 18 20 23 26 26 25 26 27 28 29 29 31 32 32 34 36 37 38 40 40 38
20 22 23 22 18 14 11 6 2 2 5 6 7 7 8 11 13 14 15 16 18 20 22 23 23 23 22 21 21 23 25 27 27 27 28 28 28 28 28 28 28 30 31 29
16 18 20 21 19 16 12 7 2 1 3 7 8 7 6 7 10 13 16 18 20 21 22 22 21 21 20 20 21 22 23 23 23 21 21 20 19 17 16 17 18 19 21 23
14 13 14 16 17 18 14 9 5 3 1 3 4 6 7 9 10 12 13 14 15 18 20 20 22 22 21 20 19 16 16 16 16 15 15 15 15 17 18 17 17 17 19 20
15 13 11 11 11 13 15 14 11 7 4 2 2 2 3 6 7 9 10 11 12 14 17 20 22 21 19 17 15 13 12 12 11 11 13 14 15 19 20 19 19 20 21 22
19 15 12 10 9 8 9 10 11 9 7 5 4 4 2 2 3 5 6 8 10 11 13 15 16 16 17 18 19 19 17 17 15 14 13 14 17 21 20 18 22 25 23 24
22 18 15 13 11 9 7 7 6 5 5 6 6 6 5 4 4 4 5 8 9 11 11 11 11 10 12 15 19 20 21 21 21 19 19 18 18 20 18 19 23 26 27 27
Wind_Direction
228 230 231 231 230 231 233 233 237 239 246 247 247 247 249 248 248 251 251 252 255 258 260 261 264 266 267 266 264 266 268 267 266 266 267 268 272 273 273 262 260 262 265 258
229 232 234 236 236 235 234 234 238 241 243 246 249 249 252 253 252 251 251 252 253 251 251 254 257 260 263 266 268 268 267 266 266 268 271 273 278 281 278 277 258 257 259 257
227 232 233 235 236 235 234 233 237 243 244 246 249 251 251 252 253 252 252 252 253 255 254 251 250 253 257 261 263 265 267 269 269 270 272 273 277 280 282 280 277 270 256 262
229 232 234 236 237 236 239 236 238 241 244 246 246 248 252 250 251 251 250 250 250 251 252 255 257 256 257 260 263 266 267 269 271 272 274 274 274 278 283 282 280 278 275 276
236 235 237 241 243 242 245 246 245 246 247 246 246 245 247 251 250 250 250 250 250 252 255 259 263 266 266 264 265 267 270 272 275 277 280 280 279 281 284 283 283 286 278 267
240 240 242 244 247 247 249 251 252 254 255 254 252 250 248 252 252 250 250 251 251 254 258 261 265 267 267 266 266 267 270 273 275 277 278 282 282 281 279 277 275 280 273 264
248 249 251 253 255 253 252 253 256 256 256 259 258 255 254 252 254 255 255 255 257 258 260 262 265 267 268 268 268 269 271 273 275 277 278 280 280 277 269 266 269 272 268 257
258 264 265 265 266 264 257 254 253 251 249 249 254 257 255 255 256 257 258 260 262 263 265 266 267 268 267 266 265 264 266 272 275 277 281 280 277 269 259 254 254 261 256 230
269 268 272 273 270 267 263 254 250 250 251 250 253 259 261 259 257 256 256 257 259 261 264 265 267 268 267 263 260 260 265 274 279 282 283 279 270 253 243 240 242 239 224 211
271 269 271 272 270 263 255 252 251 249 252 259 260 256 254 259 254 256 257 254 253 255 258 261 263 263 261 258 257 261 264 270 272 278 280 277 269 251 240 236 238 229 218 221
277 272 272 271 260 255 254 255 256 257 254 257 257 259 256 261 259 257 255 252 249 251 254 256 259 259 256 255 257 260 262 257 257 257 266 282 280 258 246 246 246 248 241 238
282 277 271 266 260 254 253 259 260 261 261 260 259 258 262 262 259 256 254 250 248 251 256 255 255 257 256 254 254 256 255 250 251 255 259 253 252 255 266 262 252 257 258 255
302 285 277 271 268 266 262 262 262 260 260 261 261 262 263 263 252 253 251 246 246 251 255 253 251 252 251 250 251 253 253 249 249 252 257 252 260 261 258 257 256 258 256 255
326 295 280 270 261 261 261 252 252 258 259 259 260 262 261 262 253 251 249 252 256 252 253 250 248 248 248 248 249 251 250 251 253 254 256 261 261 262 262 262 263 264 264 263
346 322 299 284 280 278 280 274 255 249 253 258 255 252 252 260 259 258 254 255 254 253 248 248 248 247 248 251 254 260 264 263 262 261 257 257 260 263 266 271 268 267 267 266
355 335 316 301 292 287 285 286 279 273 261 257 255 253 248 253 255 255 257 253 238 240 240 241 244 250 256 258 261 267 270 269 268 266 263 259 258 261 265 268 269 267 267 268
359 345 330 317 301 298 297 289 279 259 248 252 252 251 252 255 256 254 257 261 250 244 249 253 254 259 262 261 261 263 266 267 268 268 267 263 261 262 263 264 265 265 264 261
2 354 340 329 322 312 307 316 316 304 246 242 248 257 263 264 260 257 256 260 266 264 263 262 261 262 263 265 265 265 268 268 267 266 266 266 265 264 264 265 265 265 264 262
5 0 350 338 327 319 310 306 308 295 279 246 250 269 270 254 245 249 255 262 268 268 264 254 255 263 267 267 268 270 271 272 271 270 268 268 268 269 268 267 267 266 266 266
2 6 1 353 339 329 320 307 306 290 275 245 241 255 260 247 240 247 261 266 268 277 276 272 269 266 265 266 268 270 272 272 272 272 270 269 270 270 269 268 266 266 266 266
356 5 9 6 357 347 343 321 294 268 256 223 217 225 236 244 253 261 265 266 270 272 273 270 263 259 260 264 273 282 284 281 277 270 266 265 266 267 266 265 264 265 263 258
342 358 8 14 12 5 5 360 339 295 236 223 224 228 250 272 275 273 270 271 273 275 275 268 261 259 262 271 280 288 290 286 279 273 269 266 266 262 262 264 261 259 259 258
322 338 356 10 19 23 20 20 26 31 97 199 224 233 251 270 276 280 282 281 275 272 270 265 265 268 272 278 283 285 290 289 280 271 268 262 257 258 260 263 261 262 268 269
302 312 329 347 3 23 29 33 37 48 69 103 145 203 259 287 299 303 304 300 293 285 279 277 278 278 274 267 261 267 280 291 293 287 277 268 267 270 263 265 268 272 275 272
289 295 300 312 328 350 15 30 43 58 68 73 76 76 59 11 337 333 334 333 327 320 311 301 293 283 270 261 260 266 275 280 284 289 289 278 273 279 288 280 271 268 261 274
282 288 289 290 296 306 321 336 359 34 70 93 97 94 87 81 70 53 42 32 22 14 2 348 330 308 284 271 269 270 271 273 276 278 281 284 283 284 284 273 265 265 268 267
Height
5841 5844 5845 5847 5850 5853 5855 5858 5859 5861 5861 5865 5865 5868 5869 5874 5876 5877 5880 5882 5883 5885 5886 5886 5885 5884 5884 5883 5884 5884 5883 5881 5878 5875 5874 5873 5872 5874 5879 5877 5878 5881 5881 5878
5837 5838 5840 5842 5845 5848 5850 5852 5853 5854 5856 5857 5858 5861 5862 5864 5867 5869 5871 5872 5874 5876 5877 5877 5877 5877 5877 5876 5876 5876 5875 5873 5871 5868 5868 5867 5864 5865 5872 5873 5872 5874 5875 5875
5830 5831 5834 5836 5839 5841 5843 5846 5847 5848 5849 5851 5853 5855 5856 5857 5858 5861 5863 5864 5865 5866 5867 5868 5869 5870 5869 5869 5868 5867 5866 5864 5862 5858 5857 5857 5856 5856 5861 5864 5867 5866 5867 5865
5823 5826 5829 5831 5833 5835 5837 5838 5840 5841 5843 5845 5846 5849 5847 5849 5850 5852 5854 5856 5857 5858 5858 5858 5859 5861 5861 5860 5858 5857 5856 5855 5852 5850 5848 5849 5849 5847 5847 5852 5855 5856 5855 5853
5818 5821 5823 5826 5827 5830 5831 5832 5835 5835 5836 5837 5839 5841 5844 5840 5842 5843 5846 5848 5849 5849 5849 5849 5850 5851 5851 5851 5851 5849 5847 5846 5844 5841 5838 5837 5839 5839 5838 5838 5841 5841 5840 5840
5814 5815 5818 5819 5821 5823 5824 5826 5827 5828 5828 5828 5831 5833 5837 5833 5833 5834 5838 5839 5840 5841 5841 5840 5840 5840 5840 5840 5840 5839 5837 5836 5834 5832 5830 5829 5828 5828 5827 5827 5829 5829 5828 5825
5811 5812 5813 5814 5814 5814 5816 5818 5818 5819 5819 5820 5821 5822 5828 5823 5824 5826 5828 5828 5830 5831 5831 5831 5831 5830 5829 5829 5829 5829 5828 5825 5823 5822 5821 5820 5817 5816 5816 5814 5814 5814 5813 5812
5809 5810 5809 5807 5807 5807 5807 5808 5809 5809 5811 5814 5807 5810 5815 5811 5815 5816 5817 5817 5817 5819 5819 5820 5821 5820 5820 5820 5820 5821 5820 5816 5813 5811 5810 5807 5805 5804 5804 5804 5803 5801 5801 5803
5805 5804 5803 5801 5800 5799 5798 5797 5797 5797 5797 5798 5799 5800 5801 5801 5802 5804 5805 5806 5807 5808 5808 5808 5809 5809 5809 5810 5811 5812 5811 5809 5806 5804 5803 5800 5799 5796 5795 5797 5796 5793 5796 5800
5801 5799 5797 5795 5794 5792 5792 5789 5789 5789 5789 5789 5790 5792 5793 5788 5790 5792 5793 5793 5795 5796 5798 5798 5799 5799 5799 5800 5801 5803 5803 5802 5801 5800 5799 5798 5796 5793 5790 5790 5791 5791 5794 5797
5793 5792 5790 5788 5787 5786 5783 5782 5780 5779 5780 5780 5781 5785 5781 5782 5781 5783 5782 5782 5784 5786 5788 5789 5789 5789 5790 5791 5792 5794 5795 5795 5796 5794 5794 5794 5793 5790 5787 5785 5786 5788 5790 5793
5784 5783 5782 5782 5778 5777 5774 5772 5771 5771 5771 5770 5770 5774 5772 5772 5772 5773 5772 5773 5775 5777 5778 5777 5778 5779 5781 5782 5783 5785 5786 5787 5788 5787 5787 5789 5789 5788 5785 5783 5782 5783 5784 5785
5777 5774 5772 5773 5772 5766 5761 5760 5758 5758 5758 5758 5759 5763 5760 5760 5762 5763 5763 5764 5766 5767 5768 5768 5768 5770 5772 5773 5775 5777 5779 5780 5781 5781 5781 5782 5783 5782 5782 5782 5782 5782 5781 5781
5770 5766 5763 5761 5756 5751 5748 5747 5747 5746 5744 5746 5749 5751 5749 5750 5752 5754 5756 5756 5758 5758 5759 5760 5761 5763 5765 5766 5767 5769 5771 5772 5774 5774 5774 5774 5775 5777 5777 5776 5776 5776 5776 5775
5763 5758 5752 5748 5743 5738 5734 5732 5733 5734 5731 5734 5738 5740 5740 5743 5744 5745 5748 5749 5750 5750 5752 5754 5755 5757 5759 5760 5761 5762 5763 5764 5765 5766 5767 5767 5768 5768 5769 5769 5769 5769 5769 5769
5757 5751 5744 5740 5736 5731 5728 5726 5724 5723 5722 5725 5728 5730 5732 5733 5735 5738 5741 5742 5744 5744 5745 5747 5749 5752 5753 5755 5756 5756 5755 5755 5755 5756 5757 5758 5759 5760 5761 5761 5761 5761 5761 5761
5752 5745 5738 5734 5728 5724 5721 5719 5716 5714 5714 5719 5721 5723 5724 5725 5728 5731 5733 5735 5737 5738 5741 5741 5743 5744 5745 5746 5746 5747 5747 5747 5746 5746 5746 5747 5748 5748 5749 5749 5750 5751 5751 5751
5749 5741 5733 5728 5724 5720 5719 5714 5711 5710 5710 5713 5715 5716 5717 5719 5722 5725 5727 5727 5728 5731 5732 5733 5735 5736 5736 5737 5737 5737 5737 5738 5737 5737 5736 5736 5736 5736 5736 5737 5737 5738 5738 5738
5748 5740 5732 5726 5721 5718 5714 5711 5709 5709 5710 5711 5712 5713 5714 5716 5718 5721 5722 5722 5723 5724 5724 5725 5726 5726 5727 5728 5728 5728 5727 5727 5728 5727 5727 5727 5726 5726 5726 5726 5726 5726 5726 5726
5747 5740 5732 5724 5719 5715 5713 5709 5707 5709 5709 5709 5710 5712 5713 5713 5715 5717 5718 5718 5718 5718 5717 5717 5718 5718 5719 5719 5719 5720 5719 5718 5718 5718 5718 5717 5717 5717 5716 5716 5716 5715 5716 5716
5746 5740 5733 5725 5719 5715 5711 5708 5707 5707 5708 5708 5708 5710 5710 5710 5711 5712 5712 5712 5712 5712 5711 5711 5711 5712 5713 5713 5712 5712 5710 5709 5709 5709 5708 5707 5707 5707 5706 5706 5706 5706 5706 5707
5745 5740 5734 5727 5721 5718 5711 5708 5707 5707 5705 5706 5706 5707 5707 5707 5707 5706 5706 5706 5705 5705 5705 5704 5705 5706 5706 5706 5706 5704 5702 5700 5700 5700 5699 5699 5698 5699 5699 5699 5699 5699 5699 5700
5742 5739 5734 5730 5726 5719 5713 5709 5707 5705 5704 5704 5704 5704 5704 5704 5703 5702 5701 5701 5700 5699 5698 5698 5699 5699 5699 5699 5698 5697 5696 5695 5693 5693 5693 5693 5693 5693 5694 5694 5694 5693 5693 5693
5738 5736 5733 5729 5726 5721 5716 5712 5708 5705 5704 5703 5702 5702 5701 5700 5700 5698 5697 5696 5695 5694 5693 5692 5691 5691 5691 5691 5692 5691 5691 5691 5690 5689 5688 5687 5687 5688 5688 5687 5687 5688 5687 5687
5733 5731 5729 5727 5725 5721 5718 5714 5711 5708 5706 5704 5703 5702 5701 5700 5699 5698 5696 5694 5692 5690 5688 5686 5684 5684 5685 5685 5685 5685 5686 5686 5686 5685 5684 5683 5682 5682 5683 5683 5683 5682 5681 5681
5727 5727 5725 5724 5722 5720 5717 5714 5712 5709 5707 5705 5703 5702 5700 5699 5698 5697 5696 5694 5691 5688 5686 5683 5681 5680 5680 5680 5679 5680 5681 5680 5680 5680 5679 5678 5677 5676 5676 5676 5676 5675 5675 5674